Weather History for Kalispell, MT

Change the Weather History Date:

Monday, January 21, 2013

  Actual Average Record
Temperature  
Mean Temperature 23 °F 25 °F  
Max Temperature 38 °F 32 °F 45 °F (2005)
Min Temperature 8 °F 17 °F -26 °F (1962)
Degree Days  
Heating Degree Days 42 40  
Month to date heating degree days 894 879  
Since 1 July heating degree days 4004 4393  
Cooling Degree Days 0 0  
Month to date cooling degree days 0 0  
Year to date cooling degree days 0 0  
Moisture  
Dew Point 18 °F    
Average Humidity 80    
Maximum Humidity 100    
Minimum Humidity 59    
Precipitation  
Precipitation 0.00 in 0.04 in 0.56 in (1943)
Month to date precipitation 0.53 0.98  
Year to date precipitation 0.53 0.98  
Snow  
Snow 0.00 in - - ()
Month to date snowfall 4.0  
Year to date snowfall 4.0  
Since 1 July snowfall 12.8  
Snow Depth 2.00 in    
Sea Level Pressure  
Sea Level Pressure 30.31 in    
Wind  
Wind Speed 0 mph (North)    
Max Wind Speed 6 mph    
Max Gust Speed 6 mph    
Visibility 9 miles    
Events      
T = Trace of Precipitation, MM = Missing Value Source: NWS Daily Summary

Daily Weather History Graph

Daily Weather History Graph

Search for Another Location

Airport:

Trip Planner

Search our weather history database for the weather conditions in past years. The results will help you decide how hot, cold, wet, or windy it might be!

Date:

Astronomy

Jan. 21, 2013 Rise Set
Actual Time 8:17 AM MST 5:19 PM MST
Civil Twilight 7:43 AM MST 5:54 PM MST
Nautical Twilight 7:04 AM MST 6:32 PM MST
Astronomical Twilight 6:27 AM MST 7:09 PM MST
Moon 1:00 PM MST (1/21) 3:51 AM MST (1/21)
Length of Visible Light 10h 11m
Length of Day
9h 01m
Waxing Gibbous, 75% of the Moon is Illuminated
Jan 21
Waxing Gibbous
Jan 26
Full
Feb 3
Last Quarter
Feb 10
New
Feb 17
First Quarter

Hourly Weather History & Observations

Time (MST) Temp. Dew Point Humidity Pressure Visibility Wind Dir Wind Speed Gust Speed Precip Events Conditions
1:55 AM 21.0 °F 18.0 °F 88% 30.39 in 10.0 mi Calm Calm - N/A   Clear
2:55 AM 21.0 °F 18.0 °F 88% 30.38 in 10.0 mi Calm Calm - N/A   Clear
3:55 AM 19.9 °F 17.1 °F 89% 30.38 in 10.0 mi North - - N/A   Clear
4:55 AM 19.0 °F 17.1 °F 92% 30.39 in 10.0 mi Calm Calm - N/A   Clear
5:55 AM 19.0 °F 17.1 °F 92% 30.38 in 10.0 mi Calm Calm - N/A   Clear
6:55 AM 19.0 °F 17.1 °F 92% 30.38 in 10.0 mi Calm Calm - N/A   Clear
7:56 AM 19.4 °F 17.6 °F 93% 30.25 in 10.0 mi Calm Calm - N/A   Clear
8:55 AM 19.0 °F 16.0 °F 88% 30.39 in 9.0 mi Calm Calm - N/A   Partly Cloudy
9:55 AM 23.0 °F 19.0 °F 85% 30.38 in 9.0 mi Calm Calm - N/A   Clear
10:55 AM 28.9 °F 19.9 °F 69% 30.37 in 10.0 mi Calm Calm - N/A   Clear
11:55 AM 30.9 °F 21.0 °F 67% 30.33 in 10.0 mi Calm Calm - N/A   Clear
12:55 PM 32.0 °F 21.9 °F 66% 30.32 in 10.0 mi Calm Calm - N/A   Clear
1:55 PM 36.0 °F 23.0 °F 59% 30.30 in 10.0 mi Calm Calm - N/A   Clear
2:55 PM 36.0 °F 23.0 °F 59% 30.27 in 10.0 mi Calm Calm - N/A   Clear
3:55 PM 37.4 °F 24.8 °F 60% 30.17 in 10.0 mi Calm Calm - N/A   Clear
4:55 PM 32.0 °F 23.0 °F 69% 30.27 in 10.0 mi Calm Calm - N/A   Clear
5:55 PM 23.0 °F 19.9 °F 88% 30.27 in 10.0 mi Calm Calm - N/A   Clear
6:55 PM 19.9 °F 18.0 °F 92% 30.27 in 7.0 mi Calm Calm - N/A   Clear
7:55 PM 21.9 °F 19.0 °F 89% 30.14 in 9.0 mi Calm Calm - N/A   Clear
8:55 PM 17.1 °F 15.1 °F 92% 30.29 in 6.0 mi Calm Calm - N/A   Clear
9:55 PM 16.0 °F 15.1 °F 96% 30.29 in 6.0 mi Calm Calm - N/A   Clear
10:55 PM 10.9 °F 10.0 °F 96% 30.30 in 4.0 mi Calm Calm - N/A   Clear
11:15 PM 12.2 °F 10.4 °F 92% 30.16 in 3.0 mi Calm Calm - N/A   Partly Cloudy
11:55 PM 10.9 °F 9.0 °F 92% 30.30 in 4.0 mi Calm Calm - N/A   Partly Cloudy